Location: Lobstick
(53.6000°N, 115.1667°W)
Time: 14:12:53
(UTC+00:00)

Gurwin Techsat 1B - Pass Details

Date: 30 November 2023
Orbit: 810 x 813 km, 98.9° (Epoch: 28 February)

Event Time Altitude Azimuth Distance (km) Brightness Sun altitude
Rises 13:33:33 0° 8° (N) 3,350 11.8 -16.7°
Reaches altitude 10° 13:37:07 10° 343° (NNW) 2,414 10.8 -16.1°
Enters shadow 13:38:06 12° 333° (NNW) 2,265 10.5 -16.0°
